Regional Weather Roundup
Issued by NWS Raleigh/Durham, NC

Home | Current Version | Previous Version | Text Only | Print | Product List | Glossary On
Versions: 1 2 3 4 5 6 7 8 9 10 11 12 13 14 15 16 17 18 19 20 21 22 23 24 25 26 27
000
ASUS42 KRAH 221410
RWRRAH
NORTH CAROLINA WEATHER ROUNDUP
NATIONAL WEATHER SERVICE RALEIGH NC
1000 AM EDT SUN APR 22 2018

NOTE: "FAIR" INDICATES FEW OR NO CLOUDS BELOW 12,000 FEET WITH NO
SIGNIFICANT WEATHER AND/OR OBSTRUCTIONS TO VISIBILITY.

NCZ001-053-055-056-065-067-221500-
WESTERN NORTH CAROLINA

CITY           SKY/WX    TMP DP  RH WIND       PRES   REMARKS
ASHEVILLE      CLOUDY    52  44  74 SE5       30.32F
JEFFERSON      FAIR      54  41  61 CALM      30.32F
MORGANTON      PTSUNNY   57  44  62 CALM      30.38S
HICKORY        PTSUNNY   56  48  74 CALM      30.34F
RUTHERFORDTON  CLOUDY    54  50  87 CALM      30.34F
MOUNT AIRY     PTSUNNY   56  46  70 CALM      30.37S
BOONE          FAIR      52  43  70 SW6       30.34S
$$

NCZ021-022-025-041-071-084-088-221500-
CENTRAL NORTH CAROLINA

CITY           SKY/WX    TMP DP  RH WIND       PRES   REMARKS
CHARLOTTE      PTSUNNY   62  49  62 S6        30.35F
GREENSBORO     CLOUDY    57  46  66 S5        30.36S
WINSTON-SALEM  FAIR      57  45  64 S7        30.37S
RALEIGH-DURHAM PTSUNNY   59  44  57 S5        30.39S
FORT BRAGG     FAIR      62  44  51 SE3       30.37S
FAYETTEVILLE   FAIR      62  44  51 VRB5      30.37S
BURLINGTON     FAIR      60  43  53 S3        30.36F
LAURINBURG     FAIR      63  46  54 SE7       30.37F
$$

NCZ011-015-027-028-043-044-047-080-103-221500-
NORTHEASTERN NORTH CAROLINA

CITY           SKY/WX    TMP DP  RH WIND       PRES   REMARKS
ROCKY MT-WILSO FAIR      59  46  62 S6        30.40R
GREENVILLE     FAIR      61  45  55 SE3       30.41R
WASHINGTON     FAIR      61  44  54 E6        30.42R
ELIZABETH CITY FAIR      61  38  42 SE7       30.43R
MANTEO         FAIR      58  31  36 E6        30.43S
CAPE HATTERAS  FAIR      61  37  41 VRB7      30.41R
$$

NCZ078-087-090-091-093-098-101-221500-
SOUTHEASTERN NORTH CAROLINA

CITY           SKY/WX    TMP DP  RH WIND       PRES   REMARKS
LUMBERTON      FAIR      63  46  54 SE7       30.36F
GOLDSBORO      FAIR      61  47  60 E7        30.38R
KINSTON        FAIR      63  46  55 SE8       30.41R
KENANSVILLE    FAIR      63  45  51 SE7       30.40R
NEW BERN       FAIR      61  48  62 VRB6      30.41R
CHERRY POINT   NOT AVBL
BEAUFORT       FAIR      64  46  52 E9        30.40R
JACKSONVILLE   FAIR      64  47  53 E8        30.39R
WILMINGTON     FAIR      66  49  54 E10       30.37R
$$





USA.gov is the U.S. government's official web portal to all federal, state and local government web resources and services.